Date String (YYYY-MM-DD hh:mm:ss) UTC,Instrument flags,Ambient pressure (hPa),Sample flow (lpm),Bypass flow (lpm),Sample temperature (°C),Ambient temperature (°C),ASC tube jacket temperature (°C),LED temperature (°C),Box temperature (°C),Sample RH (%),Span deviation,Mass concentration (μg/m³),Mass concentration (μg/m³),Mass concentration (μg/m³)
DateTimeUTC,F1_M11,P_M11,Q1_M11,Q2_M11,T1_M11,T2_M11,T3_M11,T4_M11,T5_M11,U1_M11,ZSPAN_M11,X0_M11,X2_M11,X1_M11
2022-08-30 05:00:00,,0833.0,5.00,0.00,29.8,26.9,00.0,38.4,31.6,22.1,0000.0,0017.10,0006.84,0005.42
2022-08-30 05:01:00,,0833.1,5.01,0.00,29.7,27.0,00.0,38.4,31.4,22.1,0000.0,0017.48,0006.88,0005.43
2022-08-30 05:02:00,,0833.0,5.01,0.00,29.7,27.3,00.0,38.4,31.4,22.1,0000.0,0018.10,0006.83,0005.42
2022-08-30 05:03:00,,0833.0,4.99,0.00,29.6,27.6,00.0,38.4,31.4,22.2,0000.0,0017.70,0006.81,0005.43
2022-08-30 05:04:00,,0833.0,5.01,0.00,29.6,27.9,00.0,38.4,31.4,22.2,0000.0,0017.48,0006.79,0005.45
2022-08-30 05:05:00,,0833.0,4.99,0.00,29.7,28.1,00.0,38.4,31.5,22.2,0000.0,0017.29,0006.73,0005.45
2022-08-30 05:06:00,,0833.0,5.00,0.00,29.7,28.2,00.0,38.4,31.5,22.1,0000.0,0017.02,0006.69,0005.45
2022-08-30 05:07:00,,0833.1,5.00,0.00,29.7,28.4,00.0,38.4,31.5,22.2,0000.0,0017.45,0006.71,0005.46
2022-08-30 05:08:00,,0833.1,5.00,0.00,29.7,28.5,00.0,38.4,31.6,22.2,0000.0,0016.47,0006.67,0005.45
2022-08-30 05:09:00,,0833.1,4.98,0.00,29.7,28.6,00.0,38.4,31.6,22.2,0000.0,0017.11,0006.66,0005.44
2022-08-30 05:10:00,,0833.1,5.00,0.00,29.8,28.7,00.0,38.4,31.7,22.2,0000.0,0017.87,0006.61,0005.42
2022-08-30 05:11:00,,0833.1,5.01,0.00,29.8,28.7,00.0,38.5,31.7,22.2,0000.0,0017.83,0006.55,0005.41
2022-08-30 05:12:00,,0833.1,5.00,0.00,29.8,28.8,00.0,38.5,31.7,22.1,0000.0,0017.10,0006.51,0005.39
2022-08-30 05:13:00,,0833.1,4.99,0.00,29.8,28.9,00.0,38.5,31.8,22.1,0000.0,0017.02,0006.49,0005.37
2022-08-30 05:14:00,,0833.1,5.00,0.00,29.9,28.8,00.0,38.5,31.7,22.0,0000.0,0018.82,0006.48,0005.35
2022-08-30 05:15:00,,0833.1,4.99,0.00,29.9,27.7,00.0,38.5,31.7,22.0,0000.0,0019.45,0006.49,0005.32
2022-08-30 05:16:00,,0833.1,5.01,0.00,29.8,26.8,00.0,38.5,31.6,22.1,0000.0,0018.62,0006.54,0005.31
2022-08-30 05:17:00,,0833.1,5.01,0.00,29.8,26.9,00.0,38.5,31.5,22.2,0000.0,0018.66,0006.55,0005.30
2022-08-30 05:18:00,,0833.1,4.99,0.00,29.7,27.1,00.0,38.4,31.4,22.3,0000.0,0018.48,0006.53,0005.29
2022-08-30 05:19:00,,0833.1,5.01,0.00,29.7,27.4,00.0,38.4,31.4,22.3,0000.0,0018.80,0006.59,0005.30
2022-08-30 05:20:00,,0833.1,5.01,0.00,29.6,27.7,00.0,38.4,31.4,22.4,0000.0,0017.73,0006.57,0005.30
2022-08-30 05:21:00,,0833.2,5.00,0.00,29.6,27.9,00.0,38.4,31.5,22.4,0000.0,0016.85,0006.57,0005.30
2022-08-30 05:22:00,,0833.2,5.00,0.00,29.7,28.1,00.0,38.4,31.5,22.4,0000.0,0017.59,0006.61,0005.32
2022-08-30 05:23:00,,0833.1,5.00,0.00,29.7,28.3,00.0,38.4,31.5,22.5,0000.0,0017.72,0006.66,0005.35
2022-08-30 05:24:00,,0833.1,5.01,0.00,29.7,28.4,00.0,38.4,31.5,22.4,0000.0,0016.82,0006.71,0005.35
2022-08-30 05:25:00,,0833.2,4.98,0.00,29.7,28.5,00.0,38.4,31.6,22.4,0000.0,0015.59,0006.73,0005.36
2022-08-30 05:26:00,,0833.1,5.01,0.00,29.7,28.6,00.0,38.4,31.6,22.3,0000.0,0015.06,0006.71,0005.38
2022-08-30 05:27:00,,0833.1,5.00,0.00,29.8,28.7,00.0,38.5,31.7,22.3,0000.0,0014.78,0006.64,0005.38
2022-08-30 05:28:00,,0833.2,5.00,0.00,29.8,28.8,00.0,38.5,31.7,22.2,0000.0,0014.62,0006.64,0005.38
2022-08-30 05:29:00,,0833.1,5.01,0.00,29.8,28.8,00.0,38.5,31.7,22.2,0000.0,0015.10,0006.67,0005.38
2022-08-30 05:30:00,,0833.2,5.00,0.00,29.8,28.9,00.0,38.5,31.7,22.2,0000.0,0014.75,0006.63,0005.37
2022-08-30 05:31:00,,0833.2,4.99,0.00,29.9,28.9,00.0,38.5,31.8,22.2,0000.0,0014.52,0006.61,0005.37
2022-08-30 05:32:00,,0833.1,5.00,0.00,29.9,28.9,00.0,38.6,31.8,22.1,0000.0,0014.57,0006.66,0005.38
2022-08-30 05:33:00,,0833.2,5.00,0.00,29.9,28.0,00.0,38.5,31.8,22.1,0000.0,0013.86,0006.68,0005.37
2022-08-30 05:34:00,,0833.2,5.00,0.00,29.9,27.0,00.0,38.5,31.7,22.1,0000.0,0014.12,0006.65,0005.36
2022-08-30 05:35:00,,0833.2,5.00,0.00,29.8,27.0,00.0,38.5,31.6,22.2,0000.0,0014.71,0006.67,0005.35
2022-08-30 05:36:00,,0833.2,5.01,0.00,29.8,27.2,00.0,38.4,31.5,22.3,0000.0,0014.67,0006.65,0005.34
2022-08-30 05:37:00,,0833.2,4.99,0.00,29.7,27.5,00.0,38.4,31.4,22.3,0000.0,0015.68,0006.64,0005.33
2022-08-30 05:38:00,,0833.2,5.01,0.00,29.7,27.8,00.0,38.4,31.5,22.4,0000.0,0016.19,0006.64,0005.32
2022-08-30 05:39:00,,0833.2,5.00,0.00,29.7,28.0,00.0,38.4,31.5,22.4,0000.0,0016.27,0006.63,0005.31
2022-08-30 05:40:00,,0833.2,5.00,0.00,29.7,28.1,00.0,38.4,31.5,22.4,0000.0,0015.92,0006.62,0005.31
2022-08-30 05:41:00,,0833.2,4.99,0.00,29.7,28.3,00.0,38.4,31.6,22.4,0000.0,0016.25,0006.68,0005.31
2022-08-30 05:42:00,,0833.2,5.00,0.00,29.7,28.4,00.0,38.4,31.6,22.4,0000.0,0016.29,0006.67,0005.31
2022-08-30 05:43:00,,0833.2,5.01,0.00,29.8,28.5,00.0,38.5,31.6,22.3,0000.0,0016.65,0006.66,0005.30
2022-08-30 05:44:00,,0833.2,5.00,0.00,29.8,28.6,00.0,38.5,31.7,22.3,0000.0,0016.83,0006.62,0005.28
2022-08-30 05:45:00,,0833.2,4.99,0.00,29.8,28.7,00.0,38.5,31.7,22.3,0000.0,0017.83,0006.59,0005.28
2022-08-30 05:46:00,,0833.1,5.00,0.00,29.8,28.8,00.0,38.5,31.7,22.2,0000.0,0017.49,0006.59,0005.27
2022-08-30 05:47:00,,0833.2,5.01,0.00,29.8,28.8,00.0,38.5,31.8,22.2,0000.0,0017.71,0006.65,0005.28
2022-08-30 05:48:00,,0833.3,5.00,0.00,29.9,28.9,00.0,38.5,31.8,22.2,0000.0,0016.79,0006.67,0005.29
2022-08-30 05:49:00,,0833.3,4.99,0.00,29.9,29.0,00.0,38.6,31.8,22.2,0000.0,0016.13,0006.72,0005.30
2022-08-30 05:50:00,,0833.3,5.01,0.00,29.9,28.8,00.0,38.6,31.9,22.1,0000.0,0016.56,0006.83,0005.33
2022-08-30 05:51:00,,0833.3,5.01,0.00,29.9,27.5,00.0,38.6,31.7,22.1,0000.0,0017.63,0006.85,0005.33
2022-08-30 05:52:00,,0833.3,4.99,0.00,29.9,26.9,00.0,38.5,31.7,22.2,0000.0,0017.27,0006.81,0005.35
2022-08-30 05:53:00,,0833.3,5.00,0.00,29.8,27.0,00.0,38.5,31.5,22.2,0000.0,0017.11,0006.79,0005.36
2022-08-30 05:54:00,,0833.3,5.00,0.00,29.7,27.3,00.0,38.5,31.4,22.3,0000.0,0016.71,0006.80,0005.38
2022-08-30 05:55:00,,0833.3,5.01,0.00,29.7,27.6,00.0,38.4,31.4,22.4,0000.0,0017.03,0006.83,0005.39
2022-08-30 05:56:00,,0833.3,5.00,0.00,29.7,27.8,00.0,38.4,31.5,22.4,0000.0,0016.14,0006.85,0005.41
2022-08-30 05:57:00,,0833.3,5.00,0.00,29.7,28.0,00.0,38.4,31.5,22.4,0000.0,0015.89,0006.82,0005.43
2022-08-30 05:58:00,,0833.2,5.01,0.00,29.7,28.2,00.0,38.5,31.5,22.4,0000.0,0016.13,0006.76,0005.44
2022-08-30 05:59:00,,0833.3,5.01,0.00,29.7,28.4,00.0,38.5,31.6,22.4,0000.0,0016.52,0006.73,0005.44
